[[{"header":{"parameterUnit":"m.s-1","parameterCategory":2,"la1":30.2991,"la2":30.254,"lo1":-89.0895,"lo2":-89.0444,"dy":0.0017,"dx":0.0017,"nx":28,"ny":28,"refTime":"2024-03-29T21:00:00:Z","depth":"0","parameterNumber":2,"parameterNumberName":"U-component_of_CURRENTS"},"data":[0,0,0,0,0,0,0,0,0,0,0,0,0,0,0,0,0,0,0,0,0,0,0,0,0,0,0,0,0,0,0,0,0,0,0,0,0,0,0,0,0,0,0,0,0,0,0,0,0,0,0,0,0,0,0,0,0,0,-0.3572,-0.3572,0,-0.3586,-0.3586,-0.3586,-0.3597,-0.3598,-0.3598,-0.3599,-0.3563,-0.3562,-0.356,0,0,0,0,0,0,0,0,0,0,0,0,0,-0.3555,-0.3555,-0.3572,-0.3572,-0.3573,-0.3586,-0.3586,-0.3586,-0.3597,-0.3598,-0.3598,-0.3599,-0.3563,-0.3562,-0.356,0,0,0,0,0,0,0,0,0,0,0,0,0,-0.3561,-0.3555,-0.3571,-0.3583,-0.3585,-0.3586,-0.3586,-0.3586,-0.3597,-0.3598,-0.3599,-0.3599,-0.3564,-0.3562,-0.356,-0.3531,0,0,-0.3553,-0.3552,0,0,0,0,0,0,0,0,-0.3561,-0.3561,-0.3581,-0.3582,-0.3584,-0.3595,-0.3567,-0.3567,-0.3597,-0.3588,-0.3599,-0.36,-0.3571,-0.3568,-0.3564,-0.353,-0.3528,-0.3553,-0.3552,-0.3551,-0.355,0,0,0,0,0,0,0,-0.356,-0.3561,-0.3573,-0.3582,-0.3584,-0.3589,-0.359,-0.3567,-0.3571,-0.3589,-0.3591,-0.3599,-0.3571,-0.3566,-0.3563,-0.3528,-0.3553,-0.3551,-0.355,-0.3549,-0.3511,-0.3511,0,0,0,0,0,0,-0.3566,-0.356,-0.3573,-0.3574,-0.3579,-0.3589,-0.359,-0.3587,-0.3572,-0.3572,-0.3598,-0.3599,-0.3569,-0.3566,-0.3562,-0.354,-0.3551,-0.3549,-0.3548,-0.3511,-0.3511,-0.3511,0,0,0,0,0,0,-0.3565,-0.3567,-0.3572,-0.3572,-0.3573,-0.3589,-0.3585,-0.3587,-0.359,-0.3581,-0.3579,-0.3601,-0.357,-0.3565,-0.3554,-0.3538,-0.3548,-0.3546,-0.3511,-0.3511,-0.3511,-0.3488,0,0,0,0,0,0,-0.3565,-0.3566,-0.3557,-0.3571,-0.3574,-0.3579,-0.3585,-0.3587,-0.3595,-0.3597,-0.3582,-0.3579,-0.357,-0.3558,-0.3552,-0.3536,-0.3544,-0.351,-0.3511,-0.3511,-0.3488,-0.3488,-0.3487,0,0,0,0,0,-0.3564,-0.355,-0.3557,-0.3558,-0.3564,-0.3579,-0.358,-0.3591,-0.3595,-0.3595,-0.359,-0.358,-0.3557,-0.3556,-0.3549,-0.3532,-0.351,-0.3511,-0.3511,-0.3489,-0.3488,-0.3487,0,0,0,0,0,0,-0.3514,-0.3551,-0.3558,-0.3549,-0.3568,-0.3583,-0.358,-0.3592,-0.3587,-0.3587,-0.3577,-0.3574,-0.3561,-0.3555,-0.3554,-0.3527,-0.3534,-0.3533,-0.3519,-0.3518,-0.3517,-0.3461,-0.3543,0,0,0,0,0,-0.3506,-0.3511,-0.3545,-0.3529,-0.3546,-0.3563,-0.3568,-0.3582,-0.3587,-0.3586,-0.3579,-0.357,-0.3556,-0.3545,-0.3537,-0.3513,-0.3475,-0.3502,-0.3502,-0.3501,-0.3453,-0.3391,-0.3378,-0.3514,-0.3514,-0.3513,0,0,-0.3475,-0.3497,-0.3495,-0.3521,-0.3533,-0.3536,-0.3567,-0.3579,-0.3568,-0.358,-0.3557,-0.3566,-0.3553,-0.3535,-0.3527,-0.3526,-0.3452,-0.3501,-0.35,-0.3452,-0.339,-0.3376,-0.3363,-0.3514,-0.3514,-0.3514,0,0,-0.3407,-0.3445,-0.3424,-0.3455,-0.3489,-0.3515,-0.3522,-0.355,-0.3554,-0.3547,-0.3552,-0.3547,-0.3533,-0.3513,-0.3502,-0.3488,-0.3455,-0.3503,-0.3438,-0.338,-0.3367,-0.3355,-0.3322,-0.3307,-0.3495,-0.3495,-0.3495,0,-0.3361,-0.3347,-0.3416,-0.3413,-0.3428,-0.3504,-0.3485,-0.3503,-0.3519,-0.3505,-0.3539,-0.3502,-0.3511,-0.3452,-0.3458,-0.3479,-0.3447,-0.3442,-0.3374,-0.3361,-0.3349,-0.3318,-0.3301,-0.3494,-0.3494,-0.3494,-0.3494,0,-0.327,-0.3282,-0.3279,-0.3304,-0.3334,-0.334,-0.3397,-0.3412,-0.3442,-0.3447,-0.342,-0.3436,-0.3406,-0.3424,-0.3433,-0.3357,-0.3365,-0.3385,-0.3367,-0.3333,-0.3305,-0.3288,-0.3493,-0.3493,-0.3493,-0.3494,0,0,-0.3094,-0.3194,-0.3187,-0.3213,-0.3286,-0.3305,-0.3307,-0.3317,-0.331,-0.3327,-0.3287,-0.3281,-0.3297,-0.3284,-0.3305,-0.3256,-0.3181,-0.3277,-0.3275,-0.3226,-0.3055,-0.2995,-0.2971,-0.3182,-0.3179,-0.3176,-0.3081,0,-0.2989,-0.2991,-0.3053,-0.3056,-0.308,-0.317,-0.317,-0.32,-0.3235,-0.323,-0.323,-0.3218,-0.3243,-0.3248,-0.3194,-0.3201,-0.3129,-0.3204,-0.3108,-0.3105,-0.3039,-0.2946,-0.284,-0.2739,-0.3064,-0.3062,-0.306,0,-0.2856,-0.2896,-0.2889,-0.2987,-0.2997,-0.3003,-0.3048,-0.306,-0.3082,-0.3107,-0.3084,-0.3112,-0.3062,-0.3102,-0.3008,-0.3056,-0.3023,-0.3016,-0.3013,-0.2934,-0.301,-0.282,-0.2696,-0.2672,-0.3033,-0.3035,-0.3037,0,-0.273,-0.2776,-0.2782,-0.2812,-0.2919,-0.2913,-0.2953,-0.2998,-0.3014,-0.3026,-0.3042,-0.2992,-0.2992,-0.2925,-0.2931,-0.2959,-0.2829,-0.288,-0.2775,-0.2774,-0.2646,-0.2638,-0.2457,-0.2745,-0.2745,-0.2745,-0.2746,0,-0.2621,-0.2624,-0.2729,-0.2745,-0.2741,-0.2837,-0.2828,-0.287,-0.2915,-0.2917,-0.2964,-0.2952,-0.2941,-0.2899,-0.2877,-0.2769,-0.278,-0.2707,-0.2713,-0.2643,-0.2636,-0.2582,-0.2631,-0.2742,-0.2743,-0.2743,-0.2744,0,-0.2503,-0.2572,-0.2592,-0.2679,-0.2696,-0.2697,-0.2773,-0.2777,-0.2839,-0.2846,-0.2849,-0.2897,-0.2843,-0.2824,-0.2745,-0.2701,-0.2566,-0.2572,-0.2505,-0.25,-0.2369,-0.2422,-0.2236,-0.2173,-0.2417,-0.2414,-0.2412,0,-0.2448,-0.2447,-0.2526,-0.2534,-0.257,-0.2595,-0.2613,-0.2711,-0.2732,-0.2805,-0.2795,-0.2777,-0.2735,-0.2616,-0.253,-0.2425,-0.2448,-0.2275,-0.2283,-0.2281,-0.2347,-0.2396,-0.2362,-0.2134,-0.213,-0.2126,-0.2123,0,-0.233,-0.2357,-0.2382,-0.2407,-0.2428,-0.2459,-0.2499,-0.2516,-0.2622,-0.2638,-0.2639,-0.2612,-0.2525,-0.2374,-0.2268,-0.2203,-0.2219,-0.2198,-0.219,-0.2066,-0.2109,-0.208,-0.2322,-0.2092,-0.2095,-0.2098,-0.2099,-0.2101,-0.2213,-0.2205,-0.2237,-0.2241,-0.2274,-0.2293,-0.2263,-0.2334,-0.2347,-0.2329,-0.2426,-0.2342,-0.2256,-0.2082,-0.2019,-0.1881,-0.1966,-0.1826,-0.1883,-0.1926,-0.1859,-0.2035,-0.1823,-0.1824,-0.1825,-0.1827,-0.1828,0,-0.2057,-0.2064,-0.2067,-0.2077,-0.205,-0.2129,-0.2152,-0.2079,-0.2038,-0.2052,-0.2021,-0.1984,-0.1859,-0.1811,-0.1696,-0.1602,-0.1576,-0.1573,-0.1611,-0.1583,-0.1703,-0.1682,-0.1437,-0.1437,-0.1437,-0.1437,-0.1437,-0.1437,-0.1971,-0.1921,-0.1931,-0.1833,-0.1842,-0.1772,-0.1751,-0.1656,-0.1603,-0.1485,-0.1481,-0.1461,-0.1564,-0.1703,-0.159,-0.1502,-0.1476,-0.1421,-0.1463,-0.157,-0.1599,-0.1626,-0.1613,-0.1357,-0.1357,-0.1266,-0.1265,-0.1265]},{"header":{"parameterUnit":"m.s-1","parameterCategory":2,"la1":30.2991,"la2":30.254,"lo1":-89.0895,"lo2":-89.0444,"dy":0.0017,"dx":0.0017,"nx":28,"ny":28,"refTime":"2024-03-29T21:00:00:Z","depth":"0","parameterNumber":3,"parameterNumberName":"V-component_of_CURRENTS"},"data":[0,0,0,0,0,0,0,0,0,0,0,0,0,0,0,0,0,0,0,0,0,0,0,0,0,0,0,0,0,0,0,0,0,0,0,0,0,0,0,0,0,0,0,0,0,0,0,0,0,0,0,0,0,0,0,0,0,0,0.0213,0.0215,0,0.0381,0.0383,0.0385,0.0577,0.058,0.0583,0.0585,0.0791,0.0794,0.0797,0,0,0,0,0,0,0,0,0,0,0,0,0,0.0128,0.0128,0.0213,0.0215,0.0217,0.0381,0.0383,0.0385,0.0576,0.058,0.0583,0.0587,0.079,0.0794,0.0797,0,0,0,0,0,0,0,0,0,0,0,0,0,0.0216,0.0128,0.0212,0.0332,0.0345,0.038,0.0383,0.0386,0.0576,0.058,0.0584,0.0588,0.0789,0.0793,0.0798,0.0737,0,0,0.081,0.0812,0,0,0,0,0,0,0,0,0.0211,0.0219,0.0313,0.0324,0.0338,0.0463,0.0429,0.0505,0.0575,0.0488,0.0585,0.0591,0.0682,0.0695,0.0716,0.0746,0.0755,0.0811,0.0813,0.0815,0.0816,0,0,0,0,0,0,0,0.0205,0.0214,0.0279,0.0314,0.033,0.0402,0.0418,0.0444,0.0559,0.0496,0.051,0.0528,0.069,0.0712,0.0723,0.0758,0.0811,0.0814,0.0817,0.0819,0.0832,0.083,0,0,0,0,0,0,0.0175,0.0207,0.0274,0.0284,0.0284,0.0399,0.0418,0.0418,0.0558,0.0584,0.0524,0.0536,0.0702,0.0717,0.0731,0.0745,0.0815,0.0819,0.0821,0.0834,0.0832,0.0829,0,0,0,0,0,0,0.0172,0.0179,0.0267,0.0251,0.0268,0.0396,0.0394,0.0419,0.0451,0.0579,0.0607,0.0532,0.0706,0.0725,0.0752,0.0752,0.0821,0.0825,0.0837,0.0834,0.0831,0.0724,0,0,0,0,0,0,0.0169,0.0176,0.0156,0.0248,0.0268,0.0284,0.0391,0.0419,0.0455,0.0473,0.0594,0.0618,0.0711,0.0745,0.0756,0.0759,0.0828,0.084,0.0835,0.0832,0.0731,0.0718,0.0707,0,0,0,0,0,0.0165,0.0125,0.0153,0.0162,0.0238,0.0282,0.0298,0.0405,0.045,0.0451,0.053,0.0615,0.0729,0.0745,0.076,0.0764,0.0842,0.0837,0.0832,0.0736,0.072,0.0707,0,0,0,0,0,0,0.0068,0.0143,0.0177,0.0158,0.0212,0.0315,0.032,0.0377,0.0436,0.0454,0.0574,0.06,0.0637,0.0684,0.07,0.0752,0.0803,0.0801,0.0725,0.0711,0.07,0.0678,0.0831,0,0,0,0,0,0.0032,0.0028,0.0108,0.0087,0.0108,0.02,0.0226,0.0295,0.0363,0.0396,0.0479,0.0556,0.0619,0.0652,0.0713,0.0712,0.0749,0.0725,0.0713,0.0703,0.0691,0.0704,0.0692,0.0814,0.0814,0.0814,0,0,-0.001,0.0025,0.0026,0.0067,0.0117,0.0137,0.0228,0.0256,0.0282,0.0401,0.0442,0.0514,0.0607,0.0642,0.0661,0.0687,0.0689,0.0697,0.0689,0.0682,0.0697,0.0686,0.0676,0.081,0.0811,0.0811,0,0,-0.0088,-0.007,-0.0088,-0.0052,0.0008,0.0069,0.0066,0.0154,0.0206,0.0236,0.0341,0.0395,0.0477,0.0556,0.0604,0.0542,0.0627,0.0564,0.0491,0.0503,0.0493,0.0485,0.0526,0.0523,0.0557,0.0557,0.0557,0,-0.0143,-0.0152,-0.009,-0.0094,-0.0071,0.0028,0.002,0.0074,0.0163,0.0182,0.0238,0.0354,0.0443,0.0489,0.0494,0.0522,0.0542,0.0545,0.0488,0.0481,0.0475,0.0519,0.0516,0.0551,0.0552,0.0553,0.0553,0,-0.0213,-0.0221,-0.0236,-0.0199,-0.0174,-0.0171,-0.0083,-0.0058,0.0007,0.0072,0.0121,0.0229,0.0302,0.0343,0.0413,0.0413,0.0447,0.0475,0.0527,0.0456,0.0507,0.0507,0.0543,0.0545,0.0547,0.0548,0,0,-0.032,-0.0291,-0.0293,-0.0292,-0.0229,-0.0214,-0.0192,-0.0143,-0.0128,-0.0045,-0.0027,0.0088,0.0144,0.0197,0.0285,0.0307,0.0307,0.0363,0.0367,0.0409,0.0342,0.043,0.0439,0.0316,0.0315,0.0314,0.04,0,-0.0389,-0.0428,-0.0385,-0.0409,-0.0416,-0.0335,-0.032,-0.0263,-0.0196,-0.0155,-0.0055,0.0005,0.009,0.0131,0.0159,0.0284,0.0297,0.0282,0.04,0.0404,0.0494,0.0438,0.0489,0.0575,0.04,0.04,0.04,0,-0.0455,-0.0472,-0.0517,-0.0505,-0.0501,-0.0495,-0.0457,-0.043,-0.035,-0.03,-0.0243,-0.0149,-0.0072,-0.0002,0.0128,0.011,0.0201,0.0287,0.0292,0.0409,0.0489,0.0614,0.0581,0.0734,0.04,0.04,0.04,0,-0.0538,-0.0557,-0.06,-0.0595,-0.0566,-0.0571,-0.0548,-0.0481,-0.0463,-0.0392,-0.0365,-0.0273,-0.0197,-0.0104,0.0104,0.01,0.0249,0.027,0.0425,0.0434,0.052,0.0539,0.0654,0.0315,0.0314,0.0314,0.0314,0,-0.0616,-0.0646,-0.0643,-0.0661,-0.0708,-0.0654,-0.0674,-0.0636,-0.0581,-0.0557,-0.045,-0.0394,-0.0224,-0.0094,0.0052,0.0259,0.0207,0.0403,0.0451,0.0487,0.05,0.0674,0.0739,0.0317,0.0317,0.0316,0.0315,0,-0.0689,-0.0688,-0.0735,-0.0739,-0.0745,-0.0774,-0.0758,-0.0764,-0.0699,-0.0664,-0.0644,-0.0488,-0.0299,-0.0109,0.0094,0.0221,0.0507,0.0471,0.0525,0.0577,0.0851,0.0908,0.1065,0.1176,0.0633,0.0636,0.0638,0,-0.0728,-0.076,-0.0802,-0.0839,-0.0843,-0.0871,-0.0887,-0.0836,-0.0826,-0.0699,-0.0686,-0.0497,-0.0321,0.0018,0.027,0.0528,0.0634,0.0702,0.07,0.0868,0.0966,0.0993,0.1077,0.0779,0.0782,0.0785,0.0787,0,-0.0798,-0.081,-0.0851,-0.0931,-0.0968,-0.1006,-0.1013,-0.1011,-0.0922,-0.0835,-0.0674,-0.0517,-0.0175,0.0176,0.0506,0.0648,0.0835,0.0763,0.0909,0.1063,0.1125,0.1256,0.0743,0.081,0.0807,0.0806,0.0805,0.0804,-0.0844,-0.0899,-0.0951,-0.1022,-0.1072,-0.1104,-0.1075,-0.1012,-0.093,-0.0662,-0.0613,-0.0229,0.0095,0.0592,0.0763,0.1115,0.1056,0.1198,0.1248,0.1255,0.1376,0.0929,0.1068,0.1067,0.1066,0.1066,0.1065,0,-0.0898,-0.0956,-0.1035,-0.111,-0.1162,-0.1166,-0.1126,-0.0992,-0.0791,-0.049,-0.0229,0.0254,0.0657,0.0992,0.1401,0.1582,0.1617,0.1656,0.1694,0.1753,0.1337,0.1358,0.1599,0.1599,0.1599,0.1599,0.1598,0.1598,-0.0929,-0.1016,-0.106,-0.1159,-0.1201,-0.1151,-0.1085,-0.0806,-0.0519,0.0028,0.0456,0.0723,0.1043,0.1589,0.1971,0.1997,0.2165,0.2135,0.2234,0.1936,0.1895,0.1857,0.1893,0.2242,0.2243,0.2638,0.2642,0.2645]}],[{"header":{"parameterUnit":"m.s-1","parameterCategory":2,"la1":30.2991,"la2":30.254,"lo1":-89.0895,"lo2":-89.0444,"dy":0.0017,"dx":0.0017,"nx":28,"ny":28,"refTime":"2024-03-29T21:00:00:Z","depth":"2","parameterNumber":2,"parameterNumberName":"U-component_of_CURRENTS"},"data":[0,0,0,0,0,0,0,0,0,0,0,0,0,0,0,0,0,0,0,0,0,0,0,0,0,0,0,0,0,0,0,0,0,0,0,0,0,0,0,0,0,0,0,0,0,0,0,0,0,0,0,0,0,0,0,0,0,0,-0.2554,-0.2555,0,-0.2602,-0.2602,-0.2602,-0.252,-0.2518,-0.2515,-0.2513,-0.2492,-0.2493,-0.2495,0,0,0,0,0,0,0,0,0,0,0,0,0,-0.2464,-0.2465,-0.2554,-0.2555,-0.2556,-0.2602,-0.2602,-0.2602,-0.2521,-0.2518,-0.2515,-0.2512,-0.2491,-0.2493,-0.2495,0,0,0,0,0,0,0,0,0,0,0,0,0,-0.2503,-0.2465,-0.2554,-0.2523,-0.2521,-0.2602,-0.2602,-0.2603,-0.2521,-0.2518,-0.2514,-0.251,-0.249,-0.2493,-0.2496,-0.2586,0,0,-0.2504,-0.2505,0,0,0,0,0,0,0,0,-0.2501,-0.2506,-0.2527,-0.2525,-0.2523,-0.2554,-0.2563,-0.2595,-0.2522,-0.2518,-0.2513,-0.2509,-0.2511,-0.2512,-0.2525,-0.2585,-0.2584,-0.2504,-0.2505,-0.2506,-0.2507,0,0,0,0,0,0,0,-0.2498,-0.2504,-0.257,-0.2528,-0.2526,-0.2531,-0.2532,-0.2569,-0.2531,-0.2518,-0.2513,-0.2525,-0.2508,-0.2523,-0.2524,-0.2584,-0.2504,-0.2506,-0.2508,-0.2509,-0.264,-0.2641,0,0,0,0,0,0,-0.25,-0.2502,-0.2568,-0.2571,-0.2506,-0.2536,-0.2536,-0.2545,-0.2532,-0.2528,-0.2528,-0.2521,-0.2521,-0.2521,-0.2523,-0.2545,-0.2506,-0.2509,-0.251,-0.2638,-0.264,-0.2642,0,0,0,0,0,0,-0.2497,-0.2505,-0.2566,-0.254,-0.2548,-0.2541,-0.2552,-0.2548,-0.2552,-0.2541,-0.2533,-0.2534,-0.2518,-0.2519,-0.2541,-0.2546,-0.251,-0.2513,-0.2635,-0.2638,-0.2641,-0.2643,0,0,0,0,0,0,-0.2495,-0.2504,-0.2511,-0.254,-0.255,-0.2593,-0.2556,-0.2552,-0.2567,-0.2558,-0.2545,-0.2539,-0.2515,-0.2537,-0.2544,-0.2549,-0.2515,-0.2633,-0.2637,-0.264,-0.264,-0.2646,-0.265,0,0,0,0,0,-0.2491,-0.2503,-0.2511,-0.2519,-0.256,-0.2594,-0.2599,-0.2579,-0.2571,-0.257,-0.2566,-0.2539,-0.2563,-0.2542,-0.2548,-0.2554,-0.2631,-0.2636,-0.264,-0.2638,-0.2645,-0.265,0,0,0,0,0,0,-0.246,-0.2498,-0.2506,-0.2527,-0.2554,-0.258,-0.2583,-0.2595,-0.2599,-0.2587,-0.2573,-0.2568,-0.2585,-0.2591,-0.2567,-0.2607,-0.2591,-0.2597,-0.2588,-0.2594,-0.2599,-0.256,-0.2517,0,0,0,0,0,-0.2467,-0.2484,-0.2523,-0.2541,-0.2554,-0.2581,-0.2596,-0.2595,-0.2607,-0.2604,-0.2604,-0.2609,-0.2619,-0.2619,-0.2629,-0.2669,-0.2642,-0.2678,-0.2683,-0.2686,-0.2663,-0.2639,-0.2637,-0.2656,-0.2656,-0.2656,0,0,-0.246,-0.2486,-0.2494,-0.2537,-0.2554,-0.2577,-0.2577,-0.2601,-0.2614,-0.2608,-0.262,-0.2631,-0.2636,-0.2653,-0.2662,-0.2651,-0.2673,-0.2692,-0.2694,-0.2668,-0.2643,-0.264,-0.2638,-0.2659,-0.2658,-0.2658,0,0,-0.2457,-0.2479,-0.2492,-0.2519,-0.2558,-0.2577,-0.2589,-0.2627,-0.2626,-0.2666,-0.2653,-0.2658,-0.2701,-0.2679,-0.2681,-0.2731,-0.2701,-0.2756,-0.2742,-0.272,-0.2717,-0.2713,-0.2688,-0.2683,-0.2755,-0.2755,-0.2755,0,-0.245,-0.2471,-0.2501,-0.2524,-0.2544,-0.2578,-0.2598,-0.2618,-0.2658,-0.2666,-0.266,-0.2701,-0.2698,-0.2703,-0.2706,-0.2733,-0.2723,-0.2713,-0.272,-0.2716,-0.2713,-0.2688,-0.2682,-0.2756,-0.2756,-0.2755,-0.2755,0,-0.2451,-0.2476,-0.2485,-0.2522,-0.255,-0.2572,-0.261,-0.2636,-0.2657,-0.2675,-0.2696,-0.27,-0.271,-0.2725,-0.2725,-0.2716,-0.2719,-0.2727,-0.2692,-0.271,-0.2685,-0.2678,-0.2756,-0.2756,-0.2756,-0.2756,0,0,-0.2405,-0.2475,-0.2474,-0.2496,-0.2552,-0.2572,-0.2606,-0.2639,-0.2653,-0.2682,-0.2693,-0.2702,-0.2705,-0.2708,-0.2717,-0.2695,-0.2663,-0.2701,-0.27,-0.2651,-0.2616,-0.254,-0.2525,-0.2677,-0.2675,-0.2674,-0.2611,0,-0.2392,-0.2432,-0.2472,-0.2504,-0.2524,-0.2575,-0.2602,-0.2639,-0.2667,-0.2687,-0.2688,-0.2701,-0.2701,-0.2709,-0.2686,-0.2679,-0.2644,-0.2679,-0.2627,-0.2625,-0.2533,-0.2514,-0.2344,-0.2266,-0.2604,-0.2603,-0.2602,0,-0.2357,-0.2397,-0.2429,-0.2499,-0.2511,-0.2535,-0.2581,-0.2615,-0.2653,-0.2677,-0.2686,-0.2699,-0.2681,-0.2678,-0.2631,-0.2661,-0.2626,-0.2608,-0.2606,-0.2519,-0.2535,-0.2304,-0.224,-0.259,-0.2591,-0.2592,-0.2593,0,-0.2284,-0.2355,-0.2379,-0.2402,-0.2488,-0.2508,-0.2547,-0.2599,-0.2625,-0.2661,-0.2678,-0.2675,-0.2668,-0.2634,-0.26,-0.2619,-0.2539,-0.2562,-0.2453,-0.2448,-0.2279,-0.2261,-0.2494,-0.2494,-0.2494,-0.2495,-0.2495,0,-0.224,-0.2254,-0.2346,-0.2359,-0.2387,-0.2461,-0.2486,-0.2534,-0.259,-0.2607,-0.2655,-0.2654,-0.2655,-0.2624,-0.2591,-0.2492,-0.2526,-0.2423,-0.2414,-0.228,-0.2264,-0.2529,-0.2534,-0.2492,-0.2493,-0.2493,-0.2494,0,-0.2145,-0.2208,-0.2239,-0.2328,-0.2352,-0.2366,-0.245,-0.2469,-0.2538,-0.2562,-0.2572,-0.2624,-0.2581,-0.2567,-0.2508,-0.2461,-0.2391,-0.2343,-0.2186,-0.2158,-0.2319,-0.2326,-0.2211,-0.2207,-0.2204,-0.2202,-0.22,0,-0.2098,-0.2105,-0.2191,-0.2207,-0.2243,-0.2285,-0.2315,-0.2417,-0.2445,-0.2528,-0.2526,-0.2523,-0.2478,-0.2379,-0.2296,-0.2199,-0.229,-0.2001,-0.1987,-0.228,-0.2284,-0.2295,-0.2306,-0.1776,-0.1771,-0.1767,-0.1763,0,-0.1999,-0.2029,-0.2058,-0.2099,-0.2131,-0.2172,-0.2225,-0.2246,-0.2356,-0.2372,-0.2372,-0.2344,-0.2272,-0.209,-0.1996,-0.193,-0.2008,-0.1907,-0.2229,-0.1882,-0.1867,-0.1873,-0.1898,-0.1724,-0.1728,-0.1731,-0.1733,-0.1734,-0.1901,-0.1901,-0.1941,-0.1962,-0.2004,-0.2029,-0.1995,-0.2064,-0.2073,-0.2057,-0.215,-0.2035,-0.2017,-0.1757,-0.1662,-0.1595,-0.1733,-0.1665,-0.168,-0.1699,-0.1668,-0.1648,-0.1458,-0.1461,-0.1463,-0.1464,-0.1466,0,-0.1771,-0.1786,-0.1801,-0.1821,-0.1801,-0.1877,-0.1901,-0.1834,-0.1769,-0.1804,-0.1756,-0.1566,-0.1444,-0.1433,-0.1255,-0.1227,-0.1231,-0.1189,-0.1195,-0.1234,-0.1268,-0.1217,-0.0887,-0.0885,-0.0884,-0.0882,0,0,-0.1701,-0.1667,-0.168,-0.16,-0.1605,-0.1509,-0.1477,-0.1418,-0.1393,-0.1296,-0.1237,-0.1327,-0.1366,-0.1114,-0.1068,-0.0941,-0.1077,-0.0897,-0.1359,-0.1403,-0.1436,-0.154,-0.1503,0,0,0,0,0]},{"header":{"parameterUnit":"m.s-1","parameterCategory":2,"la1":30.2991,"la2":30.254,"lo1":-89.0895,"lo2":-89.0444,"dy":0.0017,"dx":0.0017,"nx":28,"ny":28,"refTime":"2024-03-29T21:00:00:Z","depth":"2","parameterNumber":3,"parameterNumberName":"V-component_of_CURRENTS"},"data":[0,0,0,0,0,0,0,0,0,0,0,0,0,0,0,0,0,0,0,0,0,0,0,0,0,0,0,0,0,0,0,0,0,0,0,0,0,0,0,0,0,0,0,0,0,0,0,0,0,0,0,0,0,0,0,0,0,0,-0.0296,-0.0296,0,-0.0246,-0.0245,-0.0245,-0.0252,-0.0253,-0.0253,-0.0254,-0.0147,-0.0144,-0.0141,0,0,0,0,0,0,0,0,0,0,0,0,0,-0.036,-0.0359,-0.0297,-0.0296,-0.0295,-0.0246,-0.0245,-0.0245,-0.0252,-0.0253,-0.0253,-0.0254,-0.0148,-0.0145,-0.0141,0,0,0,0,0,0,0,0,0,0,0,0,0,-0.0327,-0.0359,-0.0297,-0.0289,-0.0288,-0.0246,-0.0245,-0.0245,-0.0252,-0.0253,-0.0253,-0.0254,-0.015,-0.0145,-0.014,-0.0095,0,0,-0.0125,-0.0123,0,0,0,0,0,0,0,0,-0.0328,-0.0325,-0.0291,-0.029,-0.0288,-0.0253,-0.0228,-0.019,-0.0252,-0.027,-0.0254,-0.0254,-0.0174,-0.0167,-0.0162,-0.009,-0.0085,-0.0125,-0.0122,-0.0119,-0.0118,0,0,0,0,0,0,0,-0.0331,-0.0327,-0.028,-0.029,-0.0288,-0.0274,-0.0272,-0.0222,-0.022,-0.0268,-0.0268,-0.0256,-0.0174,-0.0167,-0.016,-0.0083,-0.0125,-0.012,-0.0117,-0.0115,0.001,0.001,0,0,0,0,0,0,-0.0331,-0.0329,-0.0282,-0.0278,-0.0306,-0.0273,-0.0269,-0.0266,-0.0222,-0.0215,-0.0255,-0.0256,-0.0175,-0.0166,-0.0156,-0.0123,-0.0119,-0.0115,-0.0112,0.0009,0.001,0.001,0,0,0,0,0,0,-0.0332,-0.0327,-0.0284,-0.0299,-0.0292,-0.0271,-0.0267,-0.0265,-0.0258,-0.0212,-0.0205,-0.025,-0.0176,-0.0163,-0.0119,-0.0118,-0.0113,-0.0108,0.0009,0.001,0.001,-0.0041,0,0,0,0,0,0,-0.0335,-0.0328,-0.033,-0.0299,-0.0291,-0.0271,-0.0266,-0.0263,-0.0247,-0.0249,-0.0205,-0.0196,-0.0175,-0.0127,-0.0114,-0.0111,-0.0104,0.0009,0.0009,0.001,-0.004,-0.0043,-0.0045,0,0,0,0,0,-0.0337,-0.0342,-0.0331,-0.0325,-0.0293,-0.0271,-0.0266,-0.0256,-0.0247,-0.0251,-0.0218,-0.0198,-0.0114,-0.0122,-0.0108,-0.0103,0.0008,0.0009,0.001,-0.0039,-0.0042,-0.0045,0,0,0,0,0,0,-0.037,-0.0342,-0.0329,-0.0325,-0.0301,-0.0271,-0.027,-0.0251,-0.0229,-0.0228,-0.0186,-0.0175,-0.0142,-0.0107,-0.0117,-0.0065,-0.0051,-0.0047,-0.0093,-0.0096,-0.0098,-0.0108,-0.01,0,0,0,0,0,-0.0375,-0.0373,-0.0339,-0.0334,-0.0325,-0.0293,-0.0281,-0.0271,-0.0242,-0.0234,-0.0199,-0.0159,-0.0126,-0.01,-0.0069,-0.0026,0.0011,-0.0014,-0.0017,-0.0019,-0.0017,0.0038,0.004,0.0013,0.0013,0.0013,0,0,-0.0382,-0.0367,-0.0365,-0.0341,-0.0323,-0.0317,-0.0291,-0.0277,-0.027,-0.0221,-0.0201,-0.0166,-0.0118,-0.0089,-0.0069,-0.0058,0.0007,-0.0018,-0.0021,-0.0017,0.0039,0.0041,0.0044,0.0014,0.0013,0.0013,0,0,-0.0402,-0.0387,-0.0394,-0.038,-0.0354,-0.0334,-0.0328,-0.0295,-0.0284,-0.0251,-0.0221,-0.0181,-0.0125,-0.0093,-0.0068,-0.0054,-0.0013,-0.0046,-0.0056,-0.0004,-0.0001,0.0001,0.0046,0.0053,-0.004,-0.004,-0.004,0,-0.0415,-0.0419,-0.0392,-0.0395,-0.0387,-0.0343,-0.0347,-0.0325,-0.0281,-0.0262,-0.0255,-0.0169,-0.0128,-0.008,-0.0084,-0.0059,-0.0027,-0.0053,-0.0008,-0.0004,-0.0001,0.0044,0.0053,-0.0043,-0.0042,-0.0042,-0.0042,0,-0.044,-0.0444,-0.0447,-0.0439,-0.0424,-0.0423,-0.0384,-0.0365,-0.0337,-0.0306,-0.0257,-0.0201,-0.0148,-0.0129,-0.0102,-0.0054,-0.004,-0.0026,-0.0005,-0.0001,0.0046,0.0056,-0.0046,-0.0045,-0.0045,-0.0044,0,0,-0.0473,-0.0468,-0.0471,-0.0479,-0.0451,-0.0444,-0.0423,-0.039,-0.0375,-0.0324,-0.0295,-0.0229,-0.0191,-0.0159,-0.0113,-0.0061,-0.0009,-0.0035,-0.0031,0.0,0.0102,0.0136,0.0151,0.001,0.0012,0.0013,0.0122,0,-0.0504,-0.0535,-0.0511,-0.0529,-0.0542,-0.0496,-0.0482,-0.0443,-0.0401,-0.0362,-0.0286,-0.0247,-0.0204,-0.0181,-0.0121,-0.004,0.0015,-0.004,0.0101,0.0105,0.0129,0.0163,0.0134,0.0232,0.0131,0.0133,0.0134,0,-0.0541,-0.0558,-0.0589,-0.0587,-0.0585,-0.0582,-0.055,-0.0531,-0.0457,-0.0422,-0.0355,-0.0297,-0.021,-0.0182,-0.003,-0.0069,0.0012,0.0077,0.0083,0.0142,0.0159,0.0215,0.0254,0.0151,0.015,0.0149,0.0147,0,-0.0597,-0.0611,-0.0642,-0.0643,-0.0629,-0.0625,-0.061,-0.0552,-0.0535,-0.0458,-0.0433,-0.0322,-0.0267,-0.015,-0.0008,-0.002,0.0158,0.0159,0.027,0.0273,0.0292,0.0294,0.0268,0.0268,0.0267,0.0267,0.0267,0,-0.0649,-0.0672,-0.0675,-0.0694,-0.0724,-0.0685,-0.069,-0.0656,-0.0599,-0.0572,-0.0472,-0.0418,-0.0257,-0.0134,-0.0012,0.0167,0.016,0.0281,0.0311,0.0273,0.0272,0.0235,0.023,0.0271,0.027,0.0269,0.0269,0,-0.0707,-0.0709,-0.0747,-0.075,-0.0755,-0.0777,-0.076,-0.0758,-0.0692,-0.0652,-0.063,-0.0484,-0.0313,-0.0144,0.0058,0.0163,0.0325,0.0387,0.033,0.0352,0.0403,0.0394,0.0521,0.0523,0.0525,0.0527,0.0528,0,-0.0741,-0.0768,-0.0802,-0.0834,-0.0839,-0.086,-0.0873,-0.082,-0.0805,-0.0682,-0.0665,-0.0493,-0.0347,-0.0038,0.0174,0.0405,0.0393,0.0499,0.0479,0.0416,0.0433,0.042,0.0409,0.0481,0.0482,0.0482,0.0483,0,-0.08,-0.081,-0.0844,-0.0915,-0.0947,-0.0975,-0.0978,-0.0973,-0.0889,-0.0818,-0.0681,-0.0549,-0.0244,0.0023,0.0311,0.043,0.0459,0.0522,0.0489,0.0418,0.0387,0.04,0.0389,0.0489,0.0489,0.0488,0.0488,0.0488,-0.0839,-0.0885,-0.0931,-0.0993,-0.1037,-0.1066,-0.1072,-0.1039,-0.0985,-0.0849,-0.0706,-0.048,-0.0222,0.0198,0.0405,0.057,0.0559,0.0592,0.0587,0.0581,0.0554,0.0528,0.0651,0.0651,0.0652,0.0652,0.0652,0,-0.0886,-0.0936,-0.1005,-0.1075,-0.1127,-0.1127,-0.1125,-0.1092,-0.101,-0.0864,-0.0691,-0.0361,-0.0051,0.0199,0.0486,0.0665,0.0631,0.0672,0.0599,0.0592,0.0586,0.0555,0.0655,0.0656,0.0657,0.0657,0,0,-0.0915,-0.0991,-0.1028,-0.1127,-0.1171,-0.1201,-0.1187,-0.1108,-0.1001,-0.0821,-0.0643,-0.04,-0.0063,0.0149,0.0375,0.0521,0.0494,0.0518,0.0494,0.0371,0.0363,0.0519,0.0463,0,0,0,0,0]}],[{"header":{"parameterUnit":"m.s-1","parameterCategory":2,"la1":30.2991,"la2":30.254,"lo1":-89.0895,"lo2":-89.0444,"dy":0.0017,"dx":0.0017,"nx":28,"ny":28,"refTime":"2024-03-29T21:00:00:Z","depth":"4","parameterNumber":2,"parameterNumberName":"U-component_of_CURRENTS"},"data":[0,0,0,0,0,0,0,0,0,0,0,0,0,0,0,0,0,0,0,0,0,0,0,0,0,0,0,0,0,0,0,0,0,0,0,0,0,0,0,0,0,0,0,0,0,0,0,0,0,0,0,0,0,0,0,0,0,0,-0.1592,-0.1593,0,-0.1661,-0.1661,-0.1662,-0.1664,-0.1663,-0.1663,-0.1662,-0.1731,-0.1733,-0.1735,0,0,0,0,0,0,0,0,0,0,0,0,0,-0.1442,-0.1444,-0.1592,-0.1594,-0.1595,-0.166,-0.1661,-0.1662,-0.1664,-0.1663,-0.1663,-0.1662,-0.173,-0.1733,-0.1735,0,0,0,0,0,0,0,0,0,0,0,0,0,-0.1505,-0.1445,-0.1592,-0.1607,-0.1609,-0.166,-0.1661,-0.1662,-0.1664,-0.1663,-0.1663,-0.1662,-0.1729,-0.1732,-0.1736,-0.1771,0,0,-0.1746,-0.1748,0,0,0,0,0,0,0,0,-0.1501,-0.151,-0.1603,-0.1606,-0.1608,-0.1656,-0.1633,-0.17,-0.1664,-0.1639,-0.1662,-0.1662,-0.1709,-0.1714,-0.1723,-0.1775,-0.1777,-0.1747,-0.1749,-0.175,-0.1751,0,0,0,0,0,0,0,-0.1497,-0.1507,-0.1616,-0.1605,-0.1608,-0.1602,-0.161,-0.1645,-0.1674,-0.1641,-0.1643,-0.1656,-0.171,-0.172,-0.1725,-0.1778,-0.1746,-0.1749,-0.1752,-0.1753,-0.1907,-0.1909,0,0,0,0,0,0,-0.1499,-0.1503,-0.1613,-0.1618,-0.1556,-0.1606,-0.1615,-0.1639,-0.1674,-0.168,-0.1657,-0.1656,-0.1714,-0.1721,-0.1727,-0.1803,-0.175,-0.1753,-0.1755,-0.1905,-0.1907,-0.1909,0,0,0,0,0,0,-0.1495,-0.1508,-0.1611,-0.1564,-0.1577,-0.161,-0.1636,-0.164,-0.1674,-0.1687,-0.1691,-0.1689,-0.1714,-0.1722,-0.1783,-0.1805,-0.1755,-0.1758,-0.1902,-0.1905,-0.1908,-0.1935,0,0,0,0,0,0,-0.1491,-0.1507,-0.1537,-0.1565,-0.158,-0.1655,-0.1638,-0.1642,-0.1684,-0.1684,-0.1716,-0.1719,-0.1714,-0.1778,-0.1786,-0.1808,-0.176,-0.19,-0.1904,-0.1907,-0.1932,-0.1939,-0.1945,0,0,0,0,0,-0.1485,-0.1523,-0.1539,-0.1553,-0.1617,-0.1656,-0.1664,-0.168,-0.1686,-0.1707,-0.1734,-0.172,-0.1808,-0.1783,-0.1792,-0.1816,-0.1898,-0.1903,-0.1907,-0.1929,-0.1938,-0.1945,0,0,0,0,0,0,-0.148,-0.1528,-0.1545,-0.1599,-0.1634,-0.1658,-0.1685,-0.1702,-0.174,-0.1748,-0.1754,-0.1761,-0.1815,-0.1826,-0.1798,-0.1874,-0.1848,-0.1855,-0.1862,-0.187,-0.1877,-0.1873,-0.1763,0,0,0,0,0,-0.1495,-0.1535,-0.1575,-0.1623,-0.1639,-0.1671,-0.1695,-0.1711,-0.1743,-0.1759,-0.1787,-0.1816,-0.184,-0.1864,-0.1888,-0.1942,-0.1929,-0.1963,-0.197,-0.1975,-0.1981,-0.1984,-0.199,-0.1925,-0.1924,-0.1924,0,0,-0.151,-0.1542,-0.1568,-0.1625,-0.1651,-0.1686,-0.1683,-0.1729,-0.1763,-0.1763,-0.1828,-0.1845,-0.1861,-0.1907,-0.1933,-0.1921,-0.1987,-0.1981,-0.1985,-0.1988,-0.1989,-0.1995,-0.2,-0.1928,-0.1927,-0.1927,0,0,-0.1544,-0.1586,-0.1622,-0.1652,-0.1702,-0.1719,-0.174,-0.1785,-0.1808,-0.1875,-0.1873,-0.1909,-0.1968,-0.197,-0.1979,-0.2046,-0.2019,-0.206,-0.2094,-0.2096,-0.2101,-0.2105,-0.2086,-0.2088,-0.2066,-0.2066,-0.2066,0,-0.156,-0.1612,-0.164,-0.1677,-0.1707,-0.1736,-0.1776,-0.1806,-0.1871,-0.1897,-0.1902,-0.198,-0.1991,-0.2028,-0.2045,-0.2058,-0.2051,-0.2055,-0.2101,-0.2105,-0.2108,-0.2088,-0.209,-0.2068,-0.2067,-0.2067,-0.2067,0,-0.1608,-0.1657,-0.1679,-0.1734,-0.1771,-0.1811,-0.185,-0.1898,-0.1934,-0.1961,-0.2024,-0.2043,-0.2083,-0.2092,-0.209,-0.2126,-0.211,-0.2102,-0.2071,-0.2116,-0.2093,-0.2094,-0.207,-0.207,-0.2069,-0.2069,0,0,-0.1611,-0.1696,-0.1705,-0.1735,-0.1803,-0.1831,-0.1896,-0.1951,-0.199,-0.2049,-0.2096,-0.2136,-0.2146,-0.2158,-0.2158,-0.2166,-0.2176,-0.2152,-0.2152,-0.2116,-0.2171,-0.2021,-0.2007,-0.2177,-0.2178,-0.2178,-0.214,0,-0.1636,-0.1703,-0.1749,-0.1816,-0.1844,-0.1898,-0.1952,-0.2009,-0.2055,-0.2108,-0.213,-0.2173,-0.2169,-0.2188,-0.2197,-0.2185,-0.2183,-0.2186,-0.2149,-0.2147,-0.1994,-0.2005,-0.2181,-0.214,-0.2141,-0.2141,-0.2141,0,-0.1648,-0.1695,-0.1762,-0.1843,-0.1864,-0.1916,-0.1995,-0.2048,-0.212,-0.2158,-0.2205,-0.2221,-0.225,-0.2235,-0.2234,-0.2239,-0.2212,-0.2195,-0.2193,-0.2044,-0.1999,-0.2092,-0.2143,-0.2142,-0.2142,-0.2142,-0.2142,0,-0.1594,-0.1693,-0.1744,-0.1773,-0.1876,-0.1926,-0.1983,-0.2064,-0.2107,-0.2184,-0.2217,-0.2259,-0.2273,-0.2266,-0.2234,-0.2242,-0.2213,-0.2212,-0.2049,-0.2038,-0.2173,-0.2169,-0.2203,-0.2203,-0.2203,-0.2203,-0.2204,0,-0.1566,-0.1609,-0.1728,-0.1753,-0.1823,-0.1905,-0.1977,-0.2042,-0.2126,-0.216,-0.2231,-0.2244,-0.2284,-0.2271,-0.2244,-0.2135,-0.2217,-0.2047,-0.2017,-0.2185,-0.2184,-0.2172,-0.2169,-0.2202,-0.2202,-0.2203,-0.2203,0,-0.148,-0.156,-0.1625,-0.1751,-0.1795,-0.184,-0.1965,-0.2004,-0.21,-0.2145,-0.2169,-0.2236,-0.2206,-0.2213,-0.2187,-0.2117,-0.2049,-0.199,-0.2157,-0.2138,-0.1873,-0.1872,-0.1805,-0.1799,-0.1794,-0.179,-0.1787,0,-0.1434,-0.146,-0.1603,-0.1643,-0.1705,-0.1792,-0.1845,-0.1971,-0.2005,-0.2109,-0.2107,-0.2129,-0.2147,-0.1974,-0.2013,-0.1935,-0.1911,-0.1872,-0.1885,-0.1854,-0.1832,-0.1839,-0.1845,-0.1779,-0.1778,-0.1777,-0.1776,0,-0.1344,-0.1409,-0.1465,-0.1552,-0.1623,-0.1689,-0.1774,-0.1788,-0.1909,-0.2017,-0.197,-0.1939,-0.1897,-0.1858,-0.1803,-0.1757,-0.19,-0.1822,-0.1832,-0.1844,-0.1823,-0.1807,-0.1818,-0.1759,-0.1761,-0.1763,-0.1764,0,-0.1273,-0.1292,-0.1375,-0.1434,-0.152,-0.155,-0.1619,-0.1646,-0.1694,-0.1812,-0.1787,-0.1807,-0.1867,-0.1763,-0.1719,-0.1653,-0.1631,-0.1585,-0.1608,-0.1627,-0.1586,-0.1534,-0.1344,0,0,0,0,0,-0.1194,-0.1201,-0.1249,-0.1306,-0.1384,-0.1428,-0.155,-0.162,-0.1739,-0.1651,-0.1712,-0.1659,-0.1585,-0.1603,-0.1492,-0.1649,-0.1649,-0.1517,-0.1612,-0.1667,-0.1686,-0.1655,0,0,0,0,0,0,-0.114,-0.1181,-0.1201,-0.1179,-0.1184,-0.1253,-0.132,-0.1411,-0.1372,-0.1492,-0.1449,-0.1539,-0.1483,-0.159,-0.1441,-0.1448,-0.1472,-0.1543,-0.1538,-0.1656,-0.1673,-0.1689,-0.1664,0,0,0,0,0]},{"header":{"parameterUnit":"m.s-1","parameterCategory":2,"la1":30.2991,"la2":30.254,"lo1":-89.0895,"lo2":-89.0444,"dy":0.0017,"dx":0.0017,"nx":28,"ny":28,"refTime":"2024-03-29T21:00:00:Z","depth":"4","parameterNumber":3,"parameterNumberName":"V-component_of_CURRENTS"},"data":[0,0,0,0,0,0,0,0,0,0,0,0,0,0,0,0,0,0,0,0,0,0,0,0,0,0,0,0,0,0,0,0,0,0,0,0,0,0,0,0,0,0,0,0,0,0,0,0,0,0,0,0,0,0,0,0,0,0,-0.032,-0.032,0,-0.031,-0.031,-0.0311,-0.033,-0.033,-0.0331,-0.0331,-0.0275,-0.0273,-0.0271,0,0,0,0,0,0,0,0,0,0,0,0,0,-0.0345,-0.0345,-0.032,-0.0319,-0.0319,-0.031,-0.031,-0.0311,-0.033,-0.033,-0.0331,-0.0331,-0.0275,-0.0273,-0.0271,0,0,0,0,0,0,0,0,0,0,0,0,0,-0.0337,-0.0345,-0.032,-0.0326,-0.0326,-0.031,-0.031,-0.0311,-0.033,-0.033,-0.0331,-0.0331,-0.0276,-0.0273,-0.027,-0.024,0,0,-0.0262,-0.0261,0,0,0,0,0,0,0,0,-0.0338,-0.0336,-0.0325,-0.0325,-0.0326,-0.032,-0.0299,-0.0284,-0.0329,-0.0331,-0.0331,-0.0332,-0.0283,-0.028,-0.0281,-0.0238,-0.0235,-0.0262,-0.026,-0.0259,-0.0258,0,0,0,0,0,0,0,-0.0338,-0.0337,-0.0318,-0.0325,-0.0325,-0.0326,-0.0326,-0.0296,-0.0305,-0.0331,-0.0332,-0.0327,-0.0284,-0.0284,-0.0279,-0.0235,-0.0262,-0.0259,-0.0257,-0.0256,-0.0185,-0.0185,0,0,0,0,0,0,-0.0334,-0.0337,-0.0319,-0.0318,-0.0331,-0.0325,-0.0325,-0.0323,-0.0306,-0.0304,-0.0326,-0.0327,-0.0288,-0.0283,-0.0277,-0.0263,-0.0259,-0.0256,-0.0254,-0.0185,-0.0185,-0.0185,0,0,0,0,0,0,-0.0335,-0.0333,-0.0319,-0.0325,-0.0323,-0.0323,-0.0321,-0.0322,-0.0325,-0.0303,-0.03,-0.0328,-0.0288,-0.0281,-0.0253,-0.026,-0.0255,-0.0252,-0.0185,-0.0185,-0.0185,-0.0219,0,0,0,0,0,0,-0.0336,-0.0333,-0.0336,-0.0325,-0.0323,-0.0315,-0.0321,-0.0322,-0.032,-0.0322,-0.0303,-0.0298,-0.0288,-0.0257,-0.025,-0.0256,-0.025,-0.0185,-0.0185,-0.0185,-0.0218,-0.022,-0.0221,0,0,0,0,0,-0.0337,-0.0338,-0.0336,-0.0334,-0.0325,-0.0314,-0.0314,-0.0317,-0.0319,-0.0322,-0.0306,-0.0299,-0.0251,-0.0254,-0.0246,-0.0251,-0.0186,-0.0185,-0.0185,-0.0217,-0.0219,-0.0221,0,0,0,0,0,0,-0.0347,-0.0339,-0.0338,-0.0335,-0.0327,-0.0317,-0.0319,-0.0315,-0.0306,-0.0308,-0.0288,-0.0282,-0.0268,-0.0246,-0.0251,-0.0229,-0.022,-0.0218,-0.0247,-0.0249,-0.025,-0.0241,-0.0248,0,0,0,0,0,-0.0349,-0.0351,-0.0338,-0.0335,-0.0333,-0.0325,-0.0322,-0.0321,-0.0308,-0.0306,-0.029,-0.0272,-0.0258,-0.0242,-0.0229,-0.0202,-0.0161,-0.0202,-0.0203,-0.0205,-0.0191,-0.0125,-0.0119,-0.0183,-0.0183,-0.0183,0,0,-0.0351,-0.0347,-0.0347,-0.0338,-0.0334,-0.0336,-0.0326,-0.0322,-0.0323,-0.0297,-0.0294,-0.0278,-0.0254,-0.0241,-0.0231,-0.0221,-0.0169,-0.0204,-0.0206,-0.0191,-0.0124,-0.0117,-0.0112,-0.0183,-0.0183,-0.0183,0,0,-0.0358,-0.0353,-0.0359,-0.0356,-0.0349,-0.0342,-0.034,-0.0329,-0.0328,-0.0314,-0.0304,-0.0279,-0.0259,-0.0238,-0.0226,-0.0218,-0.0186,-0.0227,-0.0219,-0.0155,-0.0149,-0.0143,-0.0098,-0.0088,-0.022,-0.022,-0.022,0,-0.0363,-0.037,-0.0358,-0.0365,-0.0365,-0.0347,-0.0354,-0.0346,-0.0327,-0.0314,-0.0319,-0.0273,-0.0255,-0.0222,-0.023,-0.0221,-0.0187,-0.0218,-0.0157,-0.015,-0.0143,-0.0098,-0.0086,-0.0222,-0.0222,-0.0221,-0.0221,0,-0.0377,-0.0385,-0.0387,-0.0393,-0.0388,-0.0391,-0.0376,-0.0367,-0.0359,-0.0344,-0.0313,-0.0281,-0.0249,-0.0248,-0.0239,-0.019,-0.0183,-0.0174,-0.0152,-0.0139,-0.0092,-0.0079,-0.0224,-0.0224,-0.0223,-0.0223,0,0,-0.0387,-0.0397,-0.0401,-0.0413,-0.0406,-0.0406,-0.0397,-0.038,-0.037,-0.0343,-0.0318,-0.0288,-0.026,-0.0242,-0.0221,-0.0164,-0.01,-0.0153,-0.0149,-0.0109,0.003,0.0003,0.0015,-0.0083,-0.008,-0.0078,0.0037,0,-0.0406,-0.0435,-0.0426,-0.0448,-0.0462,-0.044,-0.0435,-0.0412,-0.0388,-0.0358,-0.0303,-0.0279,-0.0262,-0.0249,-0.0187,-0.0128,-0.0065,-0.0133,0.0013,0.0017,-0.0008,0.003,-0.0071,0.0047,0.005,0.0052,0.0054,0,-0.0428,-0.0447,-0.0477,-0.0485,-0.0487,-0.0493,-0.0475,-0.0467,-0.041,-0.0387,-0.033,-0.0292,-0.0214,-0.0203,-0.006,-0.0107,-0.0036,0.0018,0.0024,0.0026,0.0016,0.0036,0.0078,0.0076,0.0074,0.0073,0.0071,0,-0.0459,-0.048,-0.051,-0.0516,-0.0519,-0.0522,-0.0518,-0.0478,-0.0467,-0.0402,-0.038,-0.028,-0.0236,-0.0124,-0.0021,-0.0035,0.0138,0.0135,0.0187,0.0186,0.0188,0.0181,0.0259,0.0259,0.0258,0.0258,0.0258,0,-0.0487,-0.0511,-0.0533,-0.0551,-0.0581,-0.0563,-0.0571,-0.0547,-0.0503,-0.0479,-0.04,-0.0353,-0.0212,-0.0106,-0.0006,0.0127,0.0158,0.0205,0.0224,0.0167,0.0157,0.0197,0.0188,0.0262,0.0261,0.0261,0.026,0,-0.0516,-0.0531,-0.057,-0.059,-0.0602,-0.0624,-0.0626,-0.0623,-0.0575,-0.0537,-0.0518,-0.0397,-0.0257,-0.0117,0.0067,0.0135,0.0268,0.031,0.0234,0.0244,0.027,0.0258,0.0388,0.0388,0.0388,0.0389,0.0389,0,-0.0532,-0.0558,-0.061,-0.0644,-0.0659,-0.0688,-0.0705,-0.0671,-0.0656,-0.0561,-0.054,-0.0403,-0.031,-0.0061,0.0076,0.0278,0.0298,0.0361,0.0328,0.0283,0.0289,0.0276,0.0264,0.0389,0.0389,0.0389,0.0389,0,-0.0561,-0.0584,-0.0619,-0.0694,-0.0733,-0.0764,-0.0777,-0.0766,-0.0704,-0.0666,-0.0536,-0.04,-0.024,-0.0058,0.0096,0.0236,0.0315,0.0363,0.0364,0.0333,0.0286,0.0288,0.0277,0.039,0.039,0.039,0.039,0,-0.0582,-0.0619,-0.0672,-0.0732,-0.0791,-0.0817,-0.0816,-0.0774,-0.0744,-0.0622,-0.058,-0.0396,-0.0283,-0.0079,0.0063,0.0196,0.0225,0.0255,0.0262,0.0262,0.018,0.0099,0.0179,0,0,0,0,0,-0.0595,-0.064,-0.0705,-0.0769,-0.0827,-0.0852,-0.0853,-0.0833,-0.0768,-0.0681,-0.0622,-0.0465,-0.023,-0.0126,0.0006,0.0045,0.0225,0.0199,0.0257,0.0394,0.0394,0.0314,0,0,0,0,0,0,-0.0608,-0.0672,-0.0706,-0.0784,-0.083,-0.0881,-0.0878,-0.0835,-0.0768,-0.0684,-0.0554,-0.0459,-0.0232,-0.0308,-0.0,0.0041,0.009,0.0317,0.0319,0.0395,0.0394,0.0393,0.0312,0,0,0,0,0]}]]